,,,PA_Meas_PMT16A,,PR_Meas_QMR101_102,,RH_Meas_QMH101,,SR_Meas_QMS101,,TA_Meas_QMH101,,GenWind,,GenWind,
date,time,status,PA,status,PR,status,RH,status,SR,status,TA,status,DirAvg,status,SpdAvg,
2008-07-15, 00:00:04,VALID,1010.2,VALID,0,VALID,96.1074,VALID,0,VALID,23.3238,VALID,70,VALID,0.0476562,
2008-07-15, 00:01:04,VALID,1010.16,VALID,0,VALID,96.0921,VALID,0.105969,VALID,23.3026,VALID,70,VALID,0.117578,
2008-07-15, 00:02:04,VALID,1010.13,VALID,0,VALID,96.115,VALID,0,VALID,23.322,VALID,101,VALID,0.2625,
2008-07-15, 00:03:04,VALID,1010.07,VALID,0,VALID,96.0997,VALID,0,VALID,23.322,VALID,102,VALID,0,
2008-07-15, 00:04:04,VALID,1010.06,VALID,0,VALID,96.0997,VALID,0,VALID,23.3043,VALID,102,VALID,0,
2008-07-15, 00:05:04,VALID,1010.05,VALID,0,VALID,96.1379,VALID,0,VALID,23.3043,VALID,102,VALID,0,
2008-07-15, 00:06:04,VALID,1010.01,VALID,0,VALID,96.1226,VALID,0,VALID,23.3043,VALID,102,VALID,0,
2008-07-15, 00:07:04,VALID,1010.01,VALID,0,VALID,96.115,VALID,0,VALID,23.2831,VALID,102,VALID,0,
2008-07-15, 00:08:04,VALID,1010,VALID,0,VALID,96.1226,VALID,0.105969,VALID,23.3043,VALID,102,VALID,0,
2008-07-15, 00:09:04,VALID,1010.01,VALID,0,VALID,96.115,VALID,0,VALID,23.3043,VALID,102,VALID,0,
2008-07-15, 00:10:04,VALID,1010.02,VALID,0,VALID,96.1226,VALID,0,VALID,23.2636,VALID,102,VALID,0,
2008-07-15, 00:11:04,VALID,1010.07,VALID,0,VALID,96.115,VALID,0.105969,VALID,23.3043,VALID,102,VALID,0,
2008-07-15, 00:12:04,VALID,1010.07,VALID,0,VALID,96.1226,VALID,0,VALID,23.2441,VALID,102,VALID,0.00234375,
2008-07-15, 00:13:04,VALID,1010.09,VALID,0,VALID,96.1226,VALID,0,VALID,23.2246,VALID,102,VALID,0.34375,
2008-07-15, 00:14:04,VALID,1010.11,VALID,0,VALID,96.1302,VALID,0,VALID,23.2459,VALID,76,VALID,0.577344,
2008-07-15, 00:15:04,VALID,1010.1,VALID,0,VALID,96.1074,VALID,0,VALID,23.2476,VALID,76,VALID,0.703125,
2008-07-15, 00:16:04,VALID,1010.12,VALID,0,VALID,96.115,VALID,0,VALID,23.2264,VALID,76,VALID,0.710156,
2008-07-15, 00:17:04,VALID,1010.12,VALID,0,VALID,96.1226,VALID,0,VALID,23.2264,VALID,76,VALID,0.694531,
2008-07-15, 00:18:04,VALID,1010.13,VALID,0,VALID,96.115,VALID,0,VALID,23.2264,VALID,75,VALID,0.744922,
2008-07-15, 00:19:04,VALID,1010.12,VALID,0,VALID,96.1226,VALID,0.105969,VALID,23.2264,VALID,73,VALID,0.647266,
2008-07-15, 00:20:04,VALID,1010.1,VALID,0,VALID,96.0997,VALID,0,VALID,23.2264,VALID,73,VALID,0.663672,
2008-07-15, 00:21:04,VALID,1010.12,VALID,0,VALID,96.1226,VALID,0,VALID,23.2051,VALID,81,VALID,0.570703,
2008-07-15, 00:22:04,VALID,1010.09,VALID,0,VALID,96.1074,VALID,0,VALID,23.2264,VALID,61,VALID,0.362891,
2008-07-15, 00:23:04,VALID,1010.08,VALID,0,VALID,96.1226,VALID,0,VALID,23.2459,VALID,47,VALID,0.339453,
2008-07-15, 00:24:04,VALID,1010.08,VALID,0,VALID,96.1074,VALID,0.105969,VALID,23.2246,VALID,50,VALID,0.00703125,
2008-07-15, 00:25:04,VALID,1010.07,VALID,0,VALID,96.0997,VALID,0.105969,VALID,23.2459,VALID,50,VALID,0.0308594,
2008-07-15, 00:26:04,VALID,1010.05,VALID,0,VALID,96.115,VALID,0,VALID,23.2459,VALID,32,VALID,0.345703,
2008-07-15, 00:27:04,VALID,1010.01,VALID,0,VALID,96.1226,VALID,0,VALID,23.2459,VALID,11,VALID,0.00546875,
2008-07-15, 00:28:04,VALID,1010.01,VALID,0,VALID,96.1302,VALID,0.105969,VALID,23.2654,VALID,21,VALID,0.205469,
2008-07-15, 00:29:04,VALID,1009.96,VALID,0,VALID,96.115,VALID,0,VALID,23.2848,VALID,39,VALID,0.159766,
2008-07-15, 00:30:04,VALID,1009.95,VALID,0,VALID,96.1379,VALID,0,VALID,23.3043,VALID,39,VALID,0.135156,
2008-07-15, 00:31:04,VALID,1009.89,VALID,0,VALID,96.115,VALID,0,VALID,23.2654,VALID,80,VALID,0.475,
2008-07-15, 00:32:04,VALID,1009.85,VALID,0,VALID,96.115,VALID,0,VALID,23.2848,VALID,54,VALID,0.0742188,
2008-07-15, 00:33:04,VALID,1009.81,VALID,0,VALID,96.115,VALID,0,VALID,23.2848,VALID,54,VALID,0.136328,
2008-07-15, 00:34:04,VALID,1009.78,VALID,0,VALID,96.1074,VALID,0,VALID,23.3043,VALID,94,VALID,0.488281,
2008-07-15, 00:35:04,VALID,1009.75,VALID,0,VALID,96.1226,VALID,0.105969,VALID,23.2848,VALID,98,VALID,0.152734,
2008-07-15, 00:36:04,VALID,1009.75,VALID,0,VALID,96.1074,VALID,0.105969,VALID,23.3043,VALID,135,VALID,0.292969,
2008-07-15, 00:37:04,VALID,1009.72,VALID,0,VALID,96.1302,VALID,0.105969,VALID,23.3026,VALID,135,VALID,0,
2008-07-15, 00:38:04,VALID,1009.72,VALID,0,VALID,96.1074,VALID,0.105969,VALID,23.3433,VALID,135,VALID,0,
2008-07-15, 00:39:04,VALID,1009.71,VALID,0,VALID,96.115,VALID,0,VALID,23.3433,VALID,135,VALID,0.344531,
2008-07-15, 00:40:04,VALID,1009.72,VALID,0,VALID,96.1074,VALID,0.105969,VALID,23.3433,VALID,135,VALID,0.314844,
2008-07-15, 00:41:04,VALID,1009.72,VALID,0,VALID,96.1302,VALID,0.105969,VALID,23.3415,VALID,10,VALID,0.357812,
2008-07-15, 00:42:04,VALID,1009.74,VALID,0,VALID,96.1074,VALID,0,VALID,23.3043,VALID,10,VALID,0.228906,
2008-07-15, 00:43:04,VALID,1009.71,VALID,0,VALID,96.1074,VALID,0,VALID,23.3415,VALID,23,VALID,0.323047,
2008-07-15, 00:44:04,VALID,1009.73,VALID,0,VALID,96.115,VALID,0,VALID,23.3026,VALID,68,VALID,0.414844,
2008-07-15, 00:45:04,VALID,1009.71,VALID,0,VALID,96.0845,VALID,0.105969,VALID,23.322,VALID,81,VALID,0.417188,
2008-07-15, 00:46:04,VALID,1009.68,VALID,0,VALID,96.0997,VALID,0,VALID,23.3433,VALID,82,VALID,0.154297,
2008-07-15, 00:47:04,VALID,1009.75,VALID,0,VALID,96.0921,VALID,0,VALID,23.322,VALID,82,VALID,0.195703,
2008-07-15, 00:48:04,VALID,1009.74,VALID,0,VALID,96.0921,VALID,0,VALID,23.322,VALID,82,VALID,0.289453,
2008-07-15, 00:49:04,VALID,1009.72,VALID,0,VALID,96.0997,VALID,0.105969,VALID,23.4017,VALID,95,VALID,0.251563,
2008-07-15, 00:50:04,VALID,1009.73,VALID,0,VALID,96.0845,VALID,0.105969,VALID,23.3415,VALID,148,VALID,0.235547,
2008-07-15, 00:51:04,VALID,1009.72,VALID,0,VALID,96.1074,VALID,0.105969,VALID,23.322,VALID,139,VALID,0,
2008-07-15, 00:52:04,VALID,1009.72,VALID,0,VALID,96.0921,VALID,0.105969,VALID,23.3628,VALID,139,VALID,0.00273437,
2008-07-15, 00:53:04,VALID,1009.71,VALID,0,VALID,96.0921,VALID,0,VALID,23.3415,VALID,133,VALID,0.264062,
2008-07-15, 00:54:04,VALID,1009.67,VALID,0,VALID,96.0997,VALID,0.105969,VALID,23.361,VALID,67,VALID,0.341797,
2008-07-15, 00:55:04,VALID,1009.63,VALID,0,VALID,96.0769,VALID,0.105969,VALID,23.3628,VALID,67,VALID,0,
2008-07-15, 00:56:04,VALID,1009.61,VALID,0,VALID,96.0845,VALID,0,VALID,23.3823,VALID,67,VALID,0,
2008-07-15, 00:57:04,VALID,1009.55,VALID,0,VALID,96.0921,VALID,0,VALID,23.4017,VALID,66,VALID,0.410547,
2008-07-15, 00:58:04,VALID,1009.55,VALID,0,VALID,96.0845,VALID,0,VALID,23.3823,VALID,34,VALID,0.433203,
2008-07-15, 00:59:04,VALID,1009.51,VALID,0,VALID,96.0845,VALID,0.105969,VALID,23.3823,VALID,26,VALID,0.552344,
2008-07-15, 01:00:04,VALID,1009.49,VALID,0,VALID,96.0845,VALID,0,VALID,23.3823,VALID,11,VALID,0.419141,
2008-07-15, 01:01:04,VALID,1009.47,VALID,0,VALID,96.1074,VALID,0,VALID,23.3823,VALID,5,VALID,0.264062,
2008-07-15, 01:02:04,VALID,1009.44,VALID,0,VALID,96.0845,VALID,0,VALID,23.3823,VALID,5,VALID,0.314063,
2008-07-15, 01:03:04,VALID,1009.42,VALID,0,VALID,96.0616,VALID,0,VALID,23.4017,VALID,7,VALID,0.451172,
2008-07-15, 01:04:04,VALID,1009.41,VALID,0,VALID,96.0769,VALID,0.105969,VALID,23.3805,VALID,13,VALID,0.2875,
2008-07-15, 01:05:04,VALID,1009.41,VALID,0,VALID,96.0769,VALID,0,VALID,23.3823,VALID,13,VALID,0,
2008-07-15, 01:06:04,VALID,1009.43,VALID,0,VALID,96.0921,VALID,0,VALID,23.3628,VALID,317,VALID,0.236328,
2008-07-15, 01:07:04,VALID,1009.45,VALID,0,VALID,96.0997,VALID,0,VALID,23.4017,VALID,215,VALID,0.791406,
2008-07-15, 01:08:04,VALID,1009.43,VALID,0,VALID,96.0997,VALID,0,VALID,23.4212,VALID,213,VALID,0.984375,
2008-07-15, 01:09:04,VALID,1009.45,VALID,0,VALID,96.1074,VALID,0,VALID,23.4389,VALID,218,VALID,0.702734,
2008-07-15, 01:10:04,VALID,1009.44,VALID,0,VALID,96.0769,VALID,0,VALID,23.4017,VALID,209,VALID,0.645703,
2008-07-15, 01:11:04,VALID,1009.38,VALID,0,VALID,96.0616,VALID,0,VALID,23.4407,VALID,209,VALID,0.525391,
2008-07-15, 01:12:04,VALID,1009.35,VALID,0,VALID,96.0921,VALID,0,VALID,23.4602,VALID,223,VALID,0.351172,
2008-07-15, 01:13:04,VALID,1009.31,VALID,0,VALID,96.0997,VALID,0.105969,VALID,23.4407,VALID,238,VALID,0.292578,
2008-07-15, 01:14:04,VALID,1009.25,VALID,0,VALID,96.0921,VALID,0,VALID,23.4602,VALID,269,VALID,0.409375,
2008-07-15, 01:15:04,VALID,1009.22,VALID,0,VALID,96.0921,VALID,0.105969,VALID,23.4602,VALID,299,VALID,0.271484,
2008-07-15, 01:16:04,VALID,1009.22,VALID,0,VALID,96.054,VALID,0.105969,VALID,23.4602,VALID,299,VALID,0.0976563,
2008-07-15, 01:17:04,VALID,1009.18,VALID,0,VALID,96.0692,VALID,0.105969,VALID,23.4407,VALID,299,VALID,0,
2008-07-15, 01:18:04,VALID,1009.18,VALID,0,VALID,96.0921,VALID,0.105969,VALID,23.4389,VALID,256,VALID,0.375781,
2008-07-15, 01:19:04,VALID,1009.16,VALID,0,VALID,96.0845,VALID,0,VALID,23.4797,VALID,237,VALID,0.374609,
2008-07-15, 01:20:04,VALID,1009.14,VALID,0,VALID,96.0692,VALID,0.105969,VALID,23.4602,VALID,231,VALID,0.275391,
2008-07-15, 01:21:04,VALID,1009.14,VALID,0,VALID,96.0692,VALID,0.105969,VALID,23.4407,VALID,231,VALID,0.0277344,
2008-07-15, 01:22:04,VALID,1009.13,VALID,0,VALID,96.0769,VALID,0.105969,VALID,23.4389,VALID,231,VALID,0.000390625,
2008-07-15, 01:23:04,VALID,1009.12,VALID,0,VALID,96.0769,VALID,0.105969,VALID,23.4584,VALID,351,VALID,0.603516,
2008-07-15, 01:24:04,VALID,1009.13,VALID,0,VALID,96.0769,VALID,0.105969,VALID,23.4,VALID,12,VALID,0.51875,
2008-07-15, 01:25:04,VALID,1009.14,VALID,0,VALID,96.054,VALID,0,VALID,23.4017,VALID,1,VALID,0.298828,
2008-07-15, 01:26:04,VALID,1009.12,VALID,0,VALID,96.0769,VALID,0.105969,VALID,23.4017,VALID,1,VALID,0.331641,
2008-07-15, 01:27:04,VALID,1009.12,VALID,0,VALID,96.0692,VALID,0.105969,VALID,23.361,VALID,1,VALID,0.178906,
2008-07-15, 01:28:04,VALID,1009.1,VALID,0,VALID,96.0769,VALID,0.105969,VALID,23.3805,VALID,1,VALID,0,
2008-07-15, 01:29:04,VALID,1009.09,VALID,0,VALID,96.0845,VALID,0.105969,VALID,23.4017,VALID,353,VALID,0.291406,
2008-07-15, 01:30:04,VALID,1009.03,VALID,0,VALID,96.0997,VALID,0.105969,VALID,23.4212,VALID,318,VALID,0.167187,
2008-07-15, 01:31:04,VALID,1009.03,VALID,0,VALID,96.0921,VALID,0.105969,VALID,23.4,VALID,318,VALID,0,
2008-07-15, 01:32:04,VALID,1009.02,VALID,0,VALID,96.0769,VALID,0.105969,VALID,23.3805,VALID,318,VALID,0.206641,
2008-07-15, 01:33:04,VALID,1009.02,VALID,0,VALID,96.0769,VALID,0.105969,VALID,23.4017,VALID,318,VALID,0.245703,
2008-07-15, 01:34:04,VALID,1009.02,VALID,0,VALID,96.0769,VALID,0.105969,VALID,23.3823,VALID,318,VALID,0.219141,
2008-07-15, 01:35:04,VALID,1009.05,VALID,0,VALID,96.0616,VALID,0,VALID,23.3823,VALID,162,VALID,0.829687,
2008-07-15, 01:36:04,VALID,1009.03,VALID,0,VALID,96.0616,VALID,0.105969,VALID,23.3823,VALID,176,VALID,0.715234,
2008-07-15, 01:37:04,VALID,1009.04,VALID,0,VALID,96.0616,VALID,0.105969,VALID,23.3433,VALID,176,VALID,0.187891,
2008-07-15, 01:38:04,VALID,1009.02,VALID,0,VALID,96.0845,VALID,0.105969,VALID,23.3238,VALID,176,VALID,0.00117188,
2008-07-15, 01:39:04,VALID,1009,VALID,0,VALID,96.0921,VALID,0.105969,VALID,23.3026,VALID,176,VALID,0.435937,
2008-07-15, 01:40:04,VALID,1008.97,VALID,0,VALID,96.0769,VALID,0.105969,VALID,23.3238,VALID,176,VALID,0.315625,
2008-07-15, 01:41:04,VALID,1008.96,VALID,0,VALID,96.0769,VALID,0.105969,VALID,23.3238,VALID,176,VALID,0.266797,
2008-07-15, 01:42:04,VALID,1008.91,VALID,0,VALID,96.0692,VALID,0.105969,VALID,23.3026,VALID,176,VALID,0,
2008-07-15, 01:43:04,VALID,1008.86,VALID,0,VALID,96.0997,VALID,0.105969,VALID,23.322,VALID,176,VALID,0,
2008-07-15, 01:44:04,VALID,1008.87,VALID,0,VALID,96.0921,VALID,0.105969,VALID,23.3026,VALID,176,VALID,0.120312,
2008-07-15, 01:45:04,VALID,1008.84,VALID,0,VALID,96.0769,VALID,0,VALID,23.3238,VALID,176,VALID,0.165625,
2008-07-15, 01:46:04,VALID,1008.84,VALID,0,VALID,96.0921,VALID,0.105969,VALID,23.3026,VALID,176,VALID,0.258984,
2008-07-15, 01:47:04,VALID,1008.81,VALID,0,VALID,96.0845,VALID,0,VALID,23.3043,VALID,141,VALID,0.466016,
2008-07-15, 01:48:04,VALID,1008.83,VALID,0,VALID,96.0997,VALID,0.105969,VALID,23.3415,VALID,125,VALID,0.357422,
2008-07-15, 01:49:04,VALID,1008.83,VALID,0,VALID,96.1074,VALID,0.105969,VALID,23.3805,VALID,115,VALID,0.419531,
2008-07-15, 01:50:04,VALID,1008.81,VALID,0,VALID,96.1074,VALID,0.105969,VALID,23.4,VALID,105,VALID,0.3125,
2008-07-15, 01:51:04,VALID,1008.77,VALID,0,VALID,96.0997,VALID,0,VALID,23.4212,VALID,93,VALID,0.431641,
2008-07-15, 01:52:04,VALID,1008.76,VALID,0,VALID,96.1074,VALID,0.105969,VALID,23.3805,VALID,68,VALID,0.392578,
2008-07-15, 01:53:04,VALID,1008.77,VALID,0,VALID,96.0692,VALID,0.105969,VALID,23.361,VALID,68,VALID,0.354297,
2008-07-15, 01:54:04,VALID,1008.77,VALID,0,VALID,96.0845,VALID,0,VALID,23.3823,VALID,68,VALID,0.240625,
2008-07-15, 01:55:04,VALID,1008.77,VALID,0,VALID,96.0845,VALID,0.105969,VALID,23.4017,VALID,84,VALID,0.4,
2008-07-15, 01:56:04,VALID,1008.79,VALID,0,VALID,96.0997,VALID,0.105969,VALID,23.3805,VALID,91,VALID,0.392969,
2008-07-15, 01:57:04,VALID,1008.77,VALID,0,VALID,96.0845,VALID,0.105969,VALID,23.4017,VALID,91,VALID,0.196094,
2008-07-15, 01:58:04,VALID,1008.77,VALID,0,VALID,96.0692,VALID,0.105969,VALID,23.3823,VALID,59,VALID,0.484375,
2008-07-15, 01:59:04,VALID,1008.75,VALID,0,VALID,96.0845,VALID,0.105969,VALID,23.3823,VALID,59,VALID,0.396094,
2008-07-15, 02:00:04,VALID,1008.75,VALID,0,VALID,96.0845,VALID,0.105969,VALID,23.3026,VALID,59,VALID,0.380078,
2008-07-15, 02:01:04,VALID,1008.73,VALID,0,VALID,96.0845,VALID,0.105969,VALID,23.322,VALID,59,VALID,0.255859,
2008-07-15, 02:02:04,VALID,1008.67,VALID,0,VALID,96.0845,VALID,0,VALID,23.3238,VALID,59,VALID,0.464844,
2008-07-15, 02:03:04,VALID,1008.68,VALID,0,VALID,96.0769,VALID,0,VALID,23.3238,VALID,56,VALID,0.744531,
2008-07-15, 02:04:04,VALID,1008.7,VALID,0,VALID,96.0616,VALID,0,VALID,23.2636,VALID,47,VALID,0.639453,
2008-07-15, 02:05:04,VALID,1008.68,VALID,0,VALID,96.0616,VALID,0.105969,VALID,23.2441,VALID,48,VALID,0.743359,
2008-07-15, 02:06:04,VALID,1008.66,VALID,0,VALID,96.0692,VALID,0.105969,VALID,23.2459,VALID,46,VALID,0.536719,
2008-07-15, 02:07:04,VALID,1008.67,VALID,0,VALID,96.0769,VALID,0.105969,VALID,23.2264,VALID,47,VALID,0.255469,
2008-07-15, 02:08:04,VALID,1008.64,VALID,0,VALID,96.0845,VALID,0.105969,VALID,23.1857,VALID,84,VALID,0.437109,
2008-07-15, 02:09:04,VALID,1008.66,VALID,0,VALID,96.0921,VALID,0.105969,VALID,23.1857,VALID,75,VALID,0.296875,
2008-07-15, 02:10:04,VALID,1008.62,VALID,0,VALID,96.0997,VALID,0.105969,VALID,23.1857,VALID,77,VALID,0.379297,
2008-07-15, 02:11:04,VALID,1008.59,VALID,0,VALID,96.0997,VALID,0.105969,VALID,23.1857,VALID,77,VALID,0.244141,
2008-07-15, 02:12:04,VALID,1008.55,VALID,0,VALID,96.0997,VALID,0,VALID,23.1467,VALID,77,VALID,0.244922,
2008-07-15, 02:13:04,VALID,1008.54,VALID,0,VALID,96.0921,VALID,0.105969,VALID,23.1874,VALID,77,VALID,0.207031,
2008-07-15, 02:14:04,VALID,1008.53,VALID,0,VALID,96.0921,VALID,0,VALID,23.1679,VALID,42,VALID,0.392969,
2008-07-15, 02:15:04,VALID,1008.54,VALID,0,VALID,96.0921,VALID,0.105969,VALID,23.1874,VALID,30,VALID,0.345313,
2008-07-15, 02:16:04,VALID,1008.53,VALID,0,VALID,96.0997,VALID,0.105969,VALID,23.129,VALID,30,VALID,0.109375,
2008-07-15, 02:17:04,VALID,1008.55,VALID,0,VALID,96.1074,VALID,0.105969,VALID,23.129,VALID,30,VALID,0.149219,
2008-07-15, 02:18:04,VALID,1008.52,VALID,0,VALID,96.0997,VALID,0.105969,VALID,23.1077,VALID,30,VALID,0.1,
2008-07-15, 02:19:04,VALID,1008.5,VALID,0,VALID,96.1074,VALID,0.105969,VALID,23.0688,VALID,30,VALID,0,
2008-07-15, 02:20:04,VALID,1008.48,VALID,0,VALID,96.1226,VALID,0.105969,VALID,23.0688,VALID,30,VALID,0.0457031,
2008-07-15, 02:21:04,VALID,1008.47,VALID,0,VALID,96.115,VALID,0,VALID,23.0705,VALID,30,VALID,0,
2008-07-15, 02:22:04,VALID,1008.44,VALID,0,VALID,96.1226,VALID,0,VALID,23.0493,VALID,30,VALID,0,
2008-07-15, 02:23:04,VALID,1008.42,VALID,0,VALID,96.1302,VALID,0.105969,VALID,23.0298,VALID,28,VALID,0.171484,
2008-07-15, 02:24:04,VALID,1008.42,VALID,0,VALID,96.1455,VALID,0,VALID,23.0493,VALID,73,VALID,0.299219,
2008-07-15, 02:25:04,VALID,1008.44,VALID,0,VALID,96.115,VALID,0.105969,VALID,23.0705,VALID,74,VALID,0.258594,
2008-07-15, 02:26:04,VALID,1008.44,VALID,0,VALID,96.1302,VALID,0.105969,VALID,23.0688,VALID,76,VALID,0.285547,
2008-07-15, 02:27:04,VALID,1008.46,VALID,0,VALID,96.1226,VALID,0.105969,VALID,23.09,VALID,84,VALID,0.627344,
2008-07-15, 02:28:04,VALID,1008.49,VALID,0,VALID,96.1379,VALID,0.105969,VALID,23.0883,VALID,90,VALID,0.376953,
2008-07-15, 02:29:04,VALID,1008.52,VALID,0,VALID,96.1302,VALID,0.105969,VALID,23.0883,VALID,82,VALID,0.233594,
2008-07-15, 02:30:04,VALID,1008.5,VALID,0,VALID,96.1302,VALID,0,VALID,23.1112,VALID,69,VALID,0.315234,
2008-07-15, 02:31:04,VALID,1008.52,VALID,0,VALID,96.1531,VALID,0,VALID,23.1095,VALID,65,VALID,0.428906,
2008-07-15, 02:32:04,VALID,1008.5,VALID,0,VALID,96.1302,VALID,0,VALID,23.129,VALID,57,VALID,0.142188,
2008-07-15, 02:33:04,VALID,1008.45,VALID,0,VALID,96.1302,VALID,0,VALID,23.1307,VALID,57,VALID,0.0117188,
2008-07-15, 02:34:04,VALID,1008.47,VALID,0,VALID,96.1455,VALID,0,VALID,23.1485,VALID,56,VALID,0.0539063,
2008-07-15, 02:35:04,VALID,1008.44,VALID,0,VALID,96.1531,VALID,0,VALID,23.1697,VALID,56,VALID,0,
2008-07-15, 02:36:04,VALID,1008.43,VALID,0,VALID,96.1531,VALID,0,VALID,23.1679,VALID,56,VALID,0.05625,
2008-07-15, 02:37:04,VALID,1008.43,VALID,0,VALID,96.1608,VALID,0,VALID,23.1697,VALID,56,VALID,0,
2008-07-15, 02:38:04,VALID,1008.43,VALID,0,VALID,96.1226,VALID,0,VALID,23.1892,VALID,56,VALID,0.144141,
2008-07-15, 02:39:04,VALID,1008.42,VALID,0,VALID,96.1302,VALID,0,VALID,23.1892,VALID,56,VALID,0,
2008-07-15, 02:40:04,VALID,1008.41,VALID,0,VALID,96.1379,VALID,0,VALID,23.2087,VALID,56,VALID,0.208594,
2008-07-15, 02:41:04,VALID,1008.39,VALID,0,VALID,96.1302,VALID,0,VALID,23.1892,VALID,56,VALID,0.151172,
2008-07-15, 02:42:04,VALID,1008.37,VALID,0,VALID,96.1302,VALID,0,VALID,23.2087,VALID,56,VALID,0.00507812,
2008-07-15, 02:43:04,VALID,1008.34,VALID,0,VALID,96.1455,VALID,0,VALID,23.2087,VALID,56,VALID,0,
2008-07-15, 02:44:04,VALID,1008.33,VALID,0,VALID,96.1302,VALID,0,VALID,23.1874,VALID,56,VALID,0,
2008-07-15, 02:45:04,VALID,1008.29,VALID,0,VALID,96.1226,VALID,0,VALID,23.2069,VALID,56,VALID,0.0230469,
2008-07-15, 02:46:04,VALID,1008.27,VALID,0,VALID,96.1379,VALID,0,VALID,23.1874,VALID,53,VALID,0.157422,
2008-07-15, 02:47:04,VALID,1008.25,VALID,0,VALID,96.1379,VALID,0,VALID,23.1874,VALID,53,VALID,0,
2008-07-15, 02:48:04,VALID,1008.29,VALID,0,VALID,96.1379,VALID,0,VALID,23.1874,VALID,53,VALID,0,
2008-07-15, 02:49:04,VALID,1008.25,VALID,0,VALID,96.1379,VALID,0,VALID,23.2282,VALID,53,VALID,0,
2008-07-15, 02:50:04,VALID,1008.21,VALID,0,VALID,96.1455,VALID,0,VALID,23.1679,VALID,53,VALID,0,
2008-07-15, 02:51:04,VALID,1008.17,VALID,0,VALID,96.1379,VALID,0,VALID,23.2087,VALID,42,VALID,0.187891,
2008-07-15, 02:52:04,VALID,1008.17,VALID,0,VALID,96.1455,VALID,0,VALID,23.2069,VALID,42,VALID,0.335547,
2008-07-15, 02:53:04,VALID,1008.13,VALID,0,VALID,96.1379,VALID,0,VALID,23.2282,VALID,42,VALID,0.437109,
2008-07-15, 02:54:04,VALID,1008.13,VALID,0,VALID,96.1302,VALID,0,VALID,23.2069,VALID,42,VALID,0.202344,
2008-07-15, 02:55:04,VALID,1008.14,VALID,0,VALID,96.115,VALID,0,VALID,23.2087,VALID,42,VALID,0.0046875,
2008-07-15, 02:56:04,VALID,1008.13,VALID,0,VALID,96.1226,VALID,0,VALID,23.2087,VALID,42,VALID,0.0640625,
2008-07-15, 02:57:04,VALID,1008.15,VALID,0,VALID,96.1302,VALID,0,VALID,23.1892,VALID,42,VALID,0.173047,
2008-07-15, 02:58:04,VALID,1008.18,VALID,0,VALID,96.1379,VALID,0,VALID,23.1874,VALID,42,VALID,0,
2008-07-15, 02:59:04,VALID,1008.21,VALID,0,VALID,96.1302,VALID,0,VALID,23.1697,VALID,42,VALID,0,
2008-07-15, 03:00:04,VALID,1008.23,VALID,0,VALID,96.1455,VALID,0,VALID,23.2087,VALID,42,VALID,0,
2008-07-15, 03:01:04,VALID,1008.26,VALID,0,VALID,96.1302,VALID,0,VALID,23.2282,VALID,42,VALID,0,
2008-07-15, 03:02:04,VALID,1008.29,VALID,0,VALID,96.1455,VALID,0,VALID,23.1874,VALID,42,VALID,0,
2008-07-15, 03:03:04,VALID,1008.33,VALID,0,VALID,96.1226,VALID,0,VALID,23.2069,VALID,42,VALID,0.00195313,
2008-07-15, 03:04:04,VALID,1008.35,VALID,0,VALID,96.1379,VALID,0,VALID,23.2282,VALID,42,VALID,0.0769531,
2008-07-15, 03:05:04,VALID,1008.37,VALID,0,VALID,96.1379,VALID,0,VALID,23.2069,VALID,42,VALID,0.252734,
2008-07-15, 03:06:04,VALID,1008.4,VALID,0,VALID,96.1379,VALID,0,VALID,23.2069,VALID,42,VALID,0.134375,
2008-07-15, 03:07:04,VALID,1008.42,VALID,0,VALID,96.1531,VALID,0,VALID,23.2069,VALID,42,VALID,0.185937,
2008-07-15, 03:08:04,VALID,1008.43,VALID,0,VALID,96.1379,VALID,0,VALID,23.2264,VALID,43,VALID,0.265625,
2008-07-15, 03:09:04,VALID,1008.44,VALID,0,VALID,96.1379,VALID,0,VALID,23.2476,VALID,45,VALID,0.317187,
2008-07-15, 03:10:04,VALID,1008.45,VALID,0,VALID,96.1379,VALID,0,VALID,23.2476,VALID,45,VALID,0.271094,
2008-07-15, 03:11:04,VALID,1008.41,VALID,0,VALID,96.1379,VALID,0,VALID,23.2866,VALID,45,VALID,0.182422,
2008-07-15, 03:12:04,VALID,1008.44,VALID,0,VALID,96.1379,VALID,0,VALID,23.2654,VALID,45,VALID,0.351953,
2008-07-15, 03:13:04,VALID,1008.44,VALID,0,VALID,96.1302,VALID,0,VALID,23.2866,VALID,45,VALID,0.238672,
2008-07-15, 03:14:04,VALID,1008.44,VALID,0,VALID,96.1226,VALID,0,VALID,23.2866,VALID,45,VALID,0.163281,
2008-07-15, 03:15:04,VALID,1008.45,VALID,0,VALID,96.1455,VALID,0.105969,VALID,23.3043,VALID,45,VALID,0.00429688,
2008-07-15, 03:16:04,VALID,1008.42,VALID,0,VALID,96.1531,VALID,0.105969,VALID,23.3026,VALID,73,VALID,0.364453,
2008-07-15, 03:17:04,VALID,1008.45,VALID,0,VALID,96.1379,VALID,0.105969,VALID,23.3043,VALID,46,VALID,0.296484,
2008-07-15, 03:18:04,VALID,1008.46,VALID,0,VALID,96.1455,VALID,0,VALID,23.3043,VALID,82,VALID,0.633203,
2008-07-15, 03:19:04,VALID,1008.46,VALID,0,VALID,96.1379,VALID,0.105969,VALID,23.3238,VALID,80,VALID,0.296484,
2008-07-15, 03:20:04,VALID,1008.45,VALID,0,VALID,96.1455,VALID,0,VALID,23.3043,VALID,70,VALID,0.432422,
2008-07-15, 03:21:04,VALID,1008.44,VALID,0,VALID,96.1302,VALID,0,VALID,23.3238,VALID,46,VALID,0.462109,
2008-07-15, 03:22:04,VALID,1008.44,VALID,0,VALID,96.1379,VALID,0.105969,VALID,23.3238,VALID,354,VALID,0.325391,
2008-07-15, 03:23:04,VALID,1008.44,VALID,0,VALID,96.1226,VALID,0.105969,VALID,23.322,VALID,20,VALID,0.243359,
2008-07-15, 03:24:04,VALID,1008.4,VALID,0,VALID,96.1455,VALID,0.105969,VALID,23.322,VALID,20,VALID,0.0539063,
2008-07-15, 03:25:04,VALID,1008.35,VALID,0,VALID,96.1379,VALID,0.105969,VALID,23.3415,VALID,20,VALID,0.104687,
2008-07-15, 03:26:04,VALID,1008.33,VALID,0,VALID,96.1226,VALID,0.105969,VALID,23.3415,VALID,348,VALID,0.270312,
2008-07-15, 03:27:04,VALID,1008.35,VALID,0,VALID,96.1302,VALID,0.105969,VALID,23.3415,VALID,348,VALID,0.182812,
2008-07-15, 03:28:04,VALID,1008.31,VALID,0,VALID,96.1226,VALID,0,VALID,23.3628,VALID,319,VALID,0.0980469,
2008-07-15, 03:29:04,VALID,1008.31,VALID,0,VALID,96.1302,VALID,0.105969,VALID,23.322,VALID,319,VALID,0.1125,
2008-07-15, 03:30:04,VALID,1008.35,VALID,0,VALID,96.115,VALID,0.105969,VALID,23.3415,VALID,328,VALID,0.103516,
2008-07-15, 03:31:04,VALID,1008.35,VALID,0,VALID,96.1302,VALID,0.105969,VALID,23.3415,VALID,61,VALID,0.337891,
2008-07-15, 03:32:04,VALID,1008.35,VALID,0,VALID,96.1379,VALID,0.105969,VALID,23.3628,VALID,90,VALID,0.216797,
2008-07-15, 03:33:04,VALID,1008.37,VALID,0,VALID,96.1455,VALID,0.105969,VALID,23.3415,VALID,90,VALID,0.461328,
2008-07-15, 03:34:04,VALID,1008.38,VALID,0,VALID,96.115,VALID,0.105969,VALID,23.3415,VALID,96,VALID,0.519141,
2008-07-15, 03:35:04,VALID,1008.41,VALID,0,VALID,96.1455,VALID,0.105969,VALID,23.361,VALID,68,VALID,0.308594,
2008-07-15, 03:36:04,VALID,1008.4,VALID,0,VALID,96.1379,VALID,0,VALID,23.3628,VALID,68,VALID,0.283594,
2008-07-15, 03:37:04,VALID,1008.43,VALID,0,VALID,96.1379,VALID,0.105969,VALID,23.3823,VALID,90,VALID,0.230859,
2008-07-15, 03:38:04,VALID,1008.4,VALID,0,VALID,96.1379,VALID,0.105969,VALID,23.3415,VALID,90,VALID,0,
2008-07-15, 03:39:04,VALID,1008.46,VALID,0,VALID,96.0997,VALID,0.105969,VALID,23.3415,VALID,90,VALID,0.176563,
2008-07-15, 03:40:04,VALID,1008.47,VALID,0,VALID,96.115,VALID,0,VALID,23.3823,VALID,90,VALID,0.111328,
2008-07-15, 03:41:04,VALID,1008.47,VALID,0,VALID,96.115,VALID,0.105969,VALID,23.3415,VALID,90,VALID,0.0875,